Wind_Speed
68 76 82 86 88 87 86 85 82 80 80 79 77 76 73 72 72 72 73 74 73 72 70 68 67 65 59 54 54 53 50 47 47 44 42 40 38 37 36 36 35 31 28 27 25 23 22 20 19 17 15 13 11 9 7 6 5 4 3 2 2 3 5
63 70 76 83 89 90 88 87 86 82 81 81 80 78 75 73 74 73 74 76 76 75 74 71 70 69 63 56 54 54 50 48 48 46 44 42 41 39 38 37 36 34 31 30 28 26 23 22 21 20 19 17 15 12 11 9 8 7 6 5 4 2 2
56 63 69 76 85 91 92 90 88 85 83 83 83 80 77 76 77 76 76 77 78 78 77 74 72 72 69 61 56 54 52 50 49 48 45 44 42 41 40 40 39 37 35 33 31 28 25 24 23 23 22 21 19 16 14 12 11 10 9 8 7 6 4
51 58 64 70 80 91 95 94 90 87 86 86 85 83 80 78 79 79 79 79 80 80 79 76 74 73 73 68 59 54 52 50 49 48 46 45 44 42 42 42 41 40 37 34 32 30 28 26 26 26 25 25 23 20 16 15 14 13 11 11 10 9 7
47 54 60 67 77 88 95 96 93 90 88 88 86 85 83 80 80 81 81 81 82 82 80 78 76 75 74 71 64 58 54 50 46 46 46 46 47 45 43 44 43 41 39 35 32 32 31 28 27 28 28 26 26 23 18 16 15 14 13 13 12 11 10
45 50 57 65 74 85 93 96 95 92 90 89 87 85 84 81 80 80 81 81 82 82 81 79 77 76 74 72 68 63 58 51 46 45 46 48 49 47 45 45 44 42 39 35 33 33 32 30 29 29 29 27 26 24 21 18 17 16 15 15 15 14 13
44 49 56 63 71 81 90 95 94 92 92 90 87 86 84 82 79 79 79 79 80 81 81 79 78 76 75 73 71 67 62 55 48 44 45 48 49 47 45 45 44 41 38 35 33 33 33 32 30 30 30 29 27 25 23 21 20 18 17 17 18 18 17
43 48 54 61 68 76 86 92 94 93 93 92 89 87 86 83 78 77 78 77 76 78 80 79 78 76 75 73 71 70 66 62 54 44 41 45 49 48 47 45 44 41 36 33 33 34 34 34 33 32 32 30 28 27 26 24 22 21 21 21 21 22 21
40 47 52 57 64 72 81 90 94 94 94 92 91 90 88 85 81 78 77 75 74 76 79 79 78 77 76 73 72 72 70 67 61 50 43 43 46 49 50 47 45 42 37 35 36 36 36 36 35 33 33 32 30 29 28 26 23 24 25 25 25 25 25
37 44 50 54 60 66 76 87 93 94 94 94 94 92 90 87 84 81 77 74 73 75 77 79 79 77 76 73 72 73 72 70 66 57 48 45 44 48 52 51 46 42 38 39 41 40 39 38 38 38 37 34 32 31 30 29 27 27 28 29 29 29 29
36 42 49 53 57 63 71 83 91 95 96 97 95 93 90 88 84 81 78 75 74 75 77 79 80 79 77 75 73 73 72 70 68 61 54 50 48 46 48 50 48 44 42 43 45 44 42 41 42 42 40 36 34 32 30 31 33 34 33 32 31 32 32
37 40 46 51 54 60 68 78 89 95 97 98 96 93 91 88 85 82 79 76 74 75 77 79 81 81 78 76 75 75 73 69 68 64 58 53 51 48 47 49 48 49 49 48 47 47 47 47 45 44 42 38 35 32 30 33 37 39 38 36 34 35 35
39 41 43 47 51 57 65 75 85 93 97 98 97 94 92 88 85 83 80 77 76 75 77 79 81 81 79 77 77 77 76 71 68 67 62 55 52 51 53 53 51 52 53 52 51 51 51 51 49 46 44 41 37 33 31 33 37 40 41 40 38 38 38
40 41 39 41 46 52 60 70 81 89 95 98 97 95 92 89 87 84 82 80 79 77 77 78 80 81 80 78 78 79 79 74 70 69 67 62 56 54 58 59 55 54 54 53 54 54 52 53 53 49 45 41 36 32 29 32 36 39 41 42 41 40 40
37 39 37 37 42 47 54 65 76 85 92 96 98 96 93 91 89 87 84 83 82 80 78 78 80 82 81 79 79 80 81 79 74 70 67 66 63 59 61 64 60 56 55 52 51 53 53 54 54 49 44 41 37 33 31 33 37 40 41 42 44 42 40
31 34 36 37 40 45 51 58 69 80 87 93 97 97 95 93 92 89 87 86 85 83 82 80 80 83 83 81 81 81 83 83 80 73 65 65 68 65 64 66 64 59 57 54 51 52 53 53 52 49 45 41 37 37 38 37 38 41 43 43 44 43 42
27 30 36 40 41 43 47 53 62 74 84 90 95 98 98 96 94 92 91 90 88 86 85 82 81 83 84 84 83 83 86 88 87 81 69 64 69 71 68 66 65 63 61 57 54 54 55 54 52 49 45 42 40 41 42 40 39 41 44 44 43 44 44
25 28 33 40 43 43 45 50 57 67 80 89 94 98 100 98 97 95 94 93 91 89 87 85 84 84 85 86 86 86 88 91 92 90 79 69 70 74 72 69 68 67 65 60 56 57 56 55 54 52 47 43 41 39 39 38 40 43 44 43 42 44 46
24 26 29 37 43 43 44 49 54 61 72 83 91 97 100 101 99 98 97 96 94 92 90 88 87 86 86 88 89 88 89 92 94 94 88 78 74 76 73 71 72 74 71 65 59 59 59 56 56 54 50 46 43 38 36 37 41 46 47 44 41 43 45
23 25 27 34 42 45 45 48 53 58 64 74 84 94 100 102 102 100 99 98 96 94 93 91 89 88 88 89 90 90 91 93 95 96 93 85 81 80 77 72 71 73 72 67 64 63 62 59 58 56 53 50 46 39 36 38 42 46 47 45 44 45 47
21 24 26 32 41 47 48 49 52 57 60 65 75 86 96 102 103 102 100 99 98 97 95 94 92 91 90 90 91 92 93 94 96 98 97 93 88 85 82 78 74 71 66 62 63 66 67 65 63 60 56 55 52 45 41 42 44 47 49 49 48 50 52
20 22 25 30 39 48 51 51 53 56 60 63 68 77 89 98 102 103 102 100 100 99 97 96 95 94 92 91 92 93 94 95 96 98 99 99 96 91 87 83 81 77 70 63 62 66 68 68 67 64 60 59 58 54 48 46 47 50 52 53 54 55 56
20 21 24 29 38 47 53 54 53 54 58 63 65 69 80 91 99 102 103 102 101 100 99 99 97 96 95 93 93 94 95 96 97 98 100 101 100 98 94 89 86 83 79 72 67 67 70 70 69 67 65 63 61 59 56 54 53 53 52 51 53 56 57
21 20 23 27 35 45 52 55 55 54 57 62 64 66 72 83 93 100 103 103 103 102 101 100 99 98 97 95 94 95 96 97 97 99 100 101 101 100 98 95 93 90 86 81 74 71 73 74 74 73 71 68 64 61 61 61 60 58 56 54 54 56 58
22 21 22 25 31 40 49 54 56 55 55 58 63 65 68 74 83 93 100 103 103 103 102 101 101 99 98 97 96 95 96 97 98 99 100 101 102 101 98 96 96 95 93 88 80 76 76 78 79 79 76 72 69 65 63 63 64 62 61 61 62 62 62
23 22 22 24 28 35 44 51 55 55 54 55 59 63 64 67 73 84 94 101 103 104 103 102 102 101 100 99 98 97 96 97 97 98 100 101 102 103 101 97 96 96 96 93 86 80 80 82 83 84 82 78 74 70 66 65 66 66 64 65 67 68 66
22 22 22 22 25 30 39 47 53 55 54 54 56 58 61 64 68 76 86 95 101 104 104 104 102 102 101 100 99 98 97 97 98 99 100 101 102 104 104 102 99 97 97 97 92 84 83 86 88 88 87 84 80 76 72 69 69 70 69 69 69 69 68
20 21 21 21 23 27 34 43 50 53 54 54 54 56 58 62 66 71 78 87 95 101 104 105 104 103 102 101 101 100 99 98 99 99 100 101 102 103 105 105 103 101 100 101 99 93 89 89 91 92 92 90 86 82 79 75 73 72 73 73 74 72 72
19 19 20 21 22 25 30 38 46 51 54 54 54 55 56 59 63 67 73 80 89 96 102 104 105 104 104 103 102 102 101 100 100 100 101 102 102 103 105 105 105 104 102 102 104 103 99 95 94 95 96 94 91 88 84 82 79 76 75 76 77 77 76
19 18 19 20 22 24 27 33 41 48 53 55 56 55 55 57 60 63 67 73 81 89 97 102 104 104 105 104 104 103 103 102 101 101 101 102 103 104 104 105 106 106 106 104 105 106 107 105 102 101 100 99 96 93 90 87 85 83 81 80 79 79 79
18 18 18 19 21 23 25 29 36 43 49 54 57 57 56 56 58 60 64 68 73 80 89 97 102 104 105 105 105 105 104 103 103 103 103 102 103 104 105 105 106 107 108 107 107 107 109 111 111 110 108 106 104 100 96 93 91 89 88 87 86 85 84
17 18 18 19 20 22 24 27 31 37 44 50 55 58 58 56 56 58 61 64 69 74 80 88 96 100 103 105 106 106 106 105 105 105 104 104 104 104 105 106 107 108 108 109 109 109 110 111 114 115 115 114 113 110 105 101 98 95 93 93 93 92 92
18 17 17 17 18 20 23 25 28 32 38 45 51 56 58 58 57 57 58 61 65 70 76 83 89 94 98 102 106 107 107 107 107 106 106 106 106 106 106 107 108 108 109 110 110 111 112 113 114 116 117 118 119 118 115 111 107 103 100 98 97 96 96
18 17 16 16 16 18 21 23 26 28 32 38 45 51 56 59 59 57 57 58 61 66 72 78 85 90 92 95 101 106 108 108 108 108 108 108 107 107 107 108 109 109 110 111 111 112 113 115 115 116 117 119 121 121 120 118 115 111 108 105 102 100 99
20 18 16 15 14 15 18 21 24 26 29 32 38 45 51 56 59 59 58 57 58 62 66 72 79 86 90 92 95 100 105 108 109 109 109 109 109 109 109 109 110 111 112 112 112 112 113 115 116 117 118 119 121 122 122 121 120 117 114 111 109 107 104
20 17 15 13 12 12 14 17 21 24 26 29 32 37 44 50 56 59 60 59 58 59 62 66 71 77 84 89 92 95 100 105 108 109 110 110 110 110 110 110 111 111 113 114 114 114 114 115 116 118 119 120 121 123 124 124 123 121 118 116 113 112 110
20 18 14 12 11 11 12 14 17 20 23 26 29 33 37 42 49 55 59 61 61 60 59 61 65 69 75 82 88 92 96 100 104 108 110 111 112 112 112 112 112 113 113 115 116 116 116 116 117 117 119 120 121 123 124 125 126 125 123 120 118 116 114
Wind_Direction
226 224 223 222 221 220 219 218 216 216 217 216 216 216 214 213 212 209 208 209 211 211 210 208 205 204 205 207 208 208 208 209 209 208 207 208 210 211 210 211 214 214 213 217 220 223 226 229 230 232 231 230 234 244 251 258 262 270 277 303 15 46 56
226 223 221 220 219 218 218 218 215 214 215 216 215 215 214 213 212 210 208 209 210 210 209 208 206 204 203 203 205 206 208 210 212 211 209 209 210 213 213 213 215 214 212 212 215 219 224 228 231 233 234 234 234 238 247 256 262 265 265 271 284 312 12
228 224 220 218 217 216 216 217 215 213 214 216 215 213 212 212 212 210 208 209 210 210 209 208 206 205 204 202 202 204 206 209 212 213 211 210 211 213 215 216 217 217 215 213 215 216 219 225 230 231 234 238 237 237 244 253 259 263 263 263 266 274 287
228 225 221 217 216 215 214 214 214 213 213 215 214 213 211 211 211 210 209 209 209 209 209 207 206 207 206 204 203 204 204 205 209 212 212 213 214 214 216 218 218 219 219 218 219 219 219 222 228 231 233 237 239 238 241 250 257 262 264 263 263 264 268
228 225 222 218 216 214 212 212 212 212 213 215 214 213 212 211 211 210 210 209 209 208 208 207 207 207 208 207 204 205 205 202 205 211 214 216 217 215 217 218 218 219 221 222 224 225 223 223 226 231 233 236 240 241 243 250 255 258 261 264 265 263 263
228 225 222 219 217 214 212 211 210 211 213 214 214 213 212 211 211 211 211 210 209 208 208 208 207 208 209 208 205 205 205 202 203 208 213 218 220 218 217 219 219 219 220 224 227 229 229 227 227 231 235 237 239 241 244 251 254 255 259 263 265 264 263
229 225 223 220 218 215 212 211 210 210 212 214 214 214 212 211 211 212 213 212 210 209 208 208 208 208 210 209 206 205 205 203 202 204 210 219 223 222 221 222 223 222 222 225 230 231 231 230 228 230 234 237 238 239 241 248 251 251 254 259 262 264 264
232 227 224 222 219 216 212 211 209 210 212 213 213 214 213 210 210 212 214 213 211 210 209 209 208 208 211 211 208 206 206 205 204 202 205 217 224 223 221 223 226 226 225 229 235 237 236 235 233 231 232 236 241 242 240 244 247 247 252 257 259 262 263
236 230 227 223 221 218 213 211 209 209 211 213 213 213 213 210 207 209 212 212 211 211 211 210 209 209 211 212 210 208 208 208 208 203 201 210 222 226 224 223 225 226 225 226 230 235 238 240 239 234 232 236 245 248 244 244 245 245 247 252 255 258 260
238 233 229 224 221 219 215 212 210 209 211 213 214 213 212 210 207 207 209 210 211 212 211 211 209 209 211 211 210 210 210 210 210 205 200 203 214 223 226 225 225 226 226 223 222 225 228 232 234 232 231 233 238 242 244 245 247 247 246 247 250 254 255
238 235 232 226 220 218 216 213 211 210 211 213 214 214 213 210 207 206 207 208 210 211 211 211 210 209 210 210 210 210 211 211 210 205 201 202 206 212 219 222 220 220 224 226 224 224 223 224 227 228 228 229 228 231 239 243 245 248 248 245 246 248 250
240 237 234 229 221 217 215 213 211 211 211 213 214 214 213 211 208 206 206 207 209 211 211 211 210 210 210 210 209 210 209 209 208 206 204 206 207 208 211 215 214 212 215 220 223 226 226 225 226 226 226 225 224 226 238 246 248 250 249 247 249 251 251
241 239 237 232 225 219 216 214 212 211 213 213 213 214 213 212 209 207 205 206 208 211 212 212 211 211 211 210 209 209 208 207 206 206 206 208 209 208 207 209 211 210 210 213 217 222 224 225 226 226 225 224 223 225 235 246 253 256 254 252 254 256 256
241 241 239 235 229 223 218 216 213 212 213 214 213 213 213 212 210 208 206 206 207 210 212 213 212 211 212 211 210 209 208 206 205 205 208 210 210 208 206 208 211 212 212 213 216 219 222 222 224 224 223 223 225 228 234 240 248 255 257 257 256 256 257
244 242 240 236 231 225 221 218 214 212 213 214 213 213 213 212 211 209 207 207 207 208 210 212 213 212 212 212 211 209 208 205 203 203 207 211 210 206 205 209 212 212 212 214 217 220 220 219 220 221 220 221 225 230 233 235 240 247 253 256 256 254 255
248 243 239 235 232 226 221 220 217 214 213 214 214 213 213 213 212 209 208 208 207 208 209 211 213 213 212 212 211 210 208 205 202 201 204 209 209 205 203 207 212 214 212 212 215 218 218 216 216 218 219 220 223 225 227 228 232 240 247 250 251 251 251
250 241 235 233 232 228 221 220 219 217 214 214 214 214 213 214 213 210 210 209 208 208 208 209 212 213 214 213 212 210 208 206 204 203 203 206 207 206 205 206 210 214 212 211 214 216 216 216 216 216 216 218 221 223 225 225 225 233 243 247 248 248 248
253 241 233 230 231 229 222 219 220 219 216 215 214 214 213 214 213 211 210 210 209 209 209 209 211 212 214 214 214 212 208 207 206 206 206 206 204 204 205 206 208 210 210 210 212 214 215 216 217 216 215 216 220 224 226 226 223 225 234 242 246 247 247
256 243 233 228 229 230 225 220 218 219 219 218 216 214 213 214 214 212 211 211 211 210 209 210 210 212 213 215 215 214 210 208 208 208 208 207 204 202 203 204 206 209 209 210 211 212 213 214 215 216 215 215 219 223 223 224 225 225 228 234 238 242 246
260 245 233 226 226 228 227 222 219 217 218 220 219 217 215 214 214 213 212 212 211 211 210 210 211 212 213 215 215 215 213 210 210 210 209 208 205 203 202 202 203 205 207 209 210 210 212 214 215 215 213 211 215 219 217 217 222 225 228 230 231 235 240
263 248 235 224 222 225 226 224 220 216 215 218 221 219 217 215 214 214 213 212 212 212 211 211 211 212 213 215 216 216 215 213 212 211 211 211 208 205 203 204 205 205 203 204 206 209 211 213 214 214 211 208 211 215 214 214 217 222 226 229 231 233 237
269 251 239 226 219 220 224 225 223 218 216 218 220 220 219 217 215 214 214 214 214 213 213 212 212 212 213 215 216 217 217 215 214 213 213 214 213 210 207 206 209 210 207 204 203 207 210 213 214 213 210 207 209 212 214 214 215 219 224 228 232 235 238
277 256 242 230 220 217 220 224 225 222 219 219 221 221 221 219 217 216 215 215 215 215 214 214 213 213 213 215 216 218 218 217 216 214 215 215 216 216 214 211 212 214 214 212 207 206 209 214 216 215 211 208 209 212 214 215 216 218 221 225 229 233 235
284 264 247 235 225 219 218 222 225 224 221 220 221 222 221 220 219 217 216 216 216 216 216 215 215 214 214 215 216 218 219 219 218 216 216 216 217 218 218 217 215 216 217 217 213 209 209 213 216 215 213 211 211 212 215 217 218 219 220 221 226 230 231
288 273 255 240 230 224 220 220 224 226 225 223 223 223 223 222 220 219 217 217 217 217 217 217 216 216 215 215 216 218 219 220 220 219 218 218 218 219 220 218 217 217 217 217 216 212 209 211 215 215 214 213 212 211 213 217 218 219 220 221 223 228 231
290 278 263 248 236 228 223 221 222 226 227 226 225 225 225 224 222 220 219 218 218 218 219 219 218 217 217 216 216 218 219 220 221 221 220 220 219 220 221 220 217 217 217 216 216 213 210 210 213 215 215 214 213 211 212 214 216 217 219 222 223 225 229
289 278 267 255 243 232 226 223 222 224 226 227 228 228 226 226 224 221 219 219 219 219 219 219 220 219 218 218 218 218 219 221 221 222 222 221 221 221 222 222 220 218 217 216 215 214 211 211 213 215 215 215 215 214 214 215 217 219 221 224 225 225 226
287 276 267 257 247 236 230 226 224 224 225 227 229 229 227 227 226 224 221 219 219 220 220 220 220 220 220 219 219 219 220 221 222 223 223 223 223 222 223 224 224 223 221 219 218 216 214 213 213 214 216 217 218 218 218 217 218 220 224 226 227 227 226
288 277 266 257 249 239 231 227 225 224 224 226 228 229 228 228 227 226 224 221 220 220 220 221 221 221 221 221 220 220 220 221 222 223 223 224 224 224 224 225 226 226 225 223 221 219 218 217 216 216 216 217 218 220 221 221 220 221 224 227 229 229 228
291 281 267 254 247 242 235 229 226 225 224 225 227 229 229 228 228 227 226 224 222 221 221 221 221 222 223 222 222 221 221 221 222 223 224 224 225 225 225 225 226 226 226 225 224 222 221 221 221 220 220 220 219 220 222 223 223 223 224 226 228 229 229
295 287 273 256 245 240 237 232 228 226 225 225 226 228 229 229 229 228 227 227 225 223 222 222 222 222 223 224 223 223 223 223 223 223 224 224 225 225 226 226 226 227 227 227 226 225 224 223 223 224 225 225 224 223 223 224 224 225 225 226 227 229 231
297 293 283 267 250 239 235 234 232 228 227 226 226 227 229 229 230 229 228 228 227 225 224 223 223 223 223 224 225 225 224 224 224 224 224 224 225 225 226 227 227 228 228 228 227 227 226 225 225 225 227 228 229 228 226 226 226 227 227 227 229 231 233
299 294 286 273 257 243 235 233 232 231 229 228 227 227 228 229 230 231 230 229 228 227 225 224 223 224 224 225 226 226 226 225 225 226 226 226 226 225 226 227 227 228 229 229 229 228 228 227 227 227 227 228 230 231 231 229 229 229 230 230 231 233 235
301 297 287 271 256 245 238 235 233 232 230 230 229 228 228 229 230 231 231 231 230 229 228 226 224 224 224 225 226 227 227 227 227 227 227 227 227 227 226 227 227 228 229 229 230 230 230 229 229 228 228 228 229 231 233 233 232 232 232 233 233 234 236
300 297 289 275 258 244 237 235 234 232 230 229 230 230 230 230 230 231 232 232 232 231 230 229 227 226 225 225 226 226 227 228 228 228 228 229 229 229 228 228 228 228 229 229 230 230 231 231 231 230 230 230 230 231 233 234 235 235 234 234 235 235 236
299 294 288 280 269 255 245 241 239 237 234 230 230 231 232 232 232 232 233 233 233 233 233 232 230 229 227 226 226 226 227 228 229 229 229 230 230 230 230 230 229 229 229 229 230 230 231 232 232 232 232 232 232 232 233 234 236 237 237 236 236 236 236
297 294 288 281 273 263 256 250 246 244 241 237 233 232 232 233 233 233 234 234 235 235 235 235 234 232 230 228 227 227 227 228 229 230 230 231 231 231 231 231 231 231 231 230 230 231 231 232 233 233 234 234 234 234 234 235 236 238 239 238 238 238 237
Height
10756 10758 10765 10776 10786 10794 10804 10813 10822 10830 10836 10843 10849 10855 10864 10872 10879 10887 10895 10898 10901 10908 10915 10921 10927 10933 10939 10944 10949 10954 10958 10961 10964 10968 10971 10975 10978 10980 10982 10984 10986 10989 10992 10994 10995 10997 10999 11000 11002 11003 11004 11005 11005 11006 11006 11006 11007 11007 11008 11008 11009 11009 11010
10745 10748 10755 10764 10774 10784 10795 10803 10811 10821 10829 10834 10840 10848 10858 10865 10871 10880 10887 10889 10893 10900 10907 10913 10920 10927 10934 10939 10944 10950 10954 10957 10961 10964 10968 10971 10974 10977 10980 10982 10985 10987 10990 10992 10994 10996 10997 10999 11000 11002 11003 11003 11004 11005 11005 11005 11006 11006 11007 11007 11008 11008 11009
10739 10742 10748 10755 10763 10772 10782 10790 10801 10813 10819 10824 10831 10840 10849 10857 10863 10870 10876 10880 10886 10892 10898 10907 10915 10923 10929 10934 10939 10945 10950 10954 10957 10961 10965 10968 10971 10974 10977 10979 10982 10984 10986 10989 10991 10994 10996 10997 10998 11000 11001 11002 11003 11003 11004 11004 11005 11005 11006 11007 11007 11007 11008
10733 10736 10742 10747 10752 10759 10767 10777 10790 10803 10808 10813 10822 10832 10840 10848 10854 10860 10866 10871 10877 10884 10892 10902 10910 10917 10923 10930 10937 10943 10947 10951 10955 10958 10961 10964 10967 10970 10973 10976 10979 10981 10984 10986 10989 10992 10993 10995 10996 10998 10999 11000 11001 11002 11003 11003 11004 11005 11005 11006 11006 11006 11007
10727 10730 10735 10739 10741 10747 10756 10766 10779 10792 10799 10806 10815 10824 10833 10840 10846 10853 10858 10863 10870 10879 10889 10898 10905 10911 10918 10927 10934 10939 10945 10949 10952 10955 10957 10959 10961 10965 10968 10971 10974 10978 10981 10983 10986 10989 10991 10993 10994 10995 10996 10998 10999 11000 11001 11002 11003 11004 11004 11005 11005 11005 11006
10722 10725 10728 10730 10733 10738 10748 10759 10772 10784 10792 10800 10809 10817 10827 10836 10842 10847 10852 10858 10866 10876 10885 10894 10901 10908 10915 10922 10929 10934 10940 10946 10950 10953 10954 10955 10957 10961 10964 10967 10971 10975 10978 10981 10983 10986 10988 10990 10991 10992 10994 10995 10997 10998 11000 11001 11001 11002 11003 11004 11004 11004 11004
10718 10719 10720 10723 10726 10732 10743 10755 10768 10779 10786 10793 10802 10811 10820 10829 10837 10843 10849 10856 10866 10875 10883 10891 10899 10906 10911 10917 10923 10929 10935 10941 10947 10952 10954 10953 10956 10961 10964 10966 10969 10972 10975 10978 10981 10983 10985 10987 10988 10989 10990 10992 10994 10996 10998 10998 10999 11000 11001 11001 11002 11002 11003
10712 10714 10715 10718 10722 10730 10740 10750 10762 10772 10778 10786 10796 10804 10812 10822 10833 10840 10845 10855 10866 10874 10880 10888 10895 10902 10908 10914 10919 10925 10930 10936 10943 10949 10951 10951 10953 10956 10959 10961 10964 10969 10974 10978 10980 10981 10983 10984 10985 10986 10987 10989 10991 10993 10994 10995 10996 10998 10998 10999 10999 11000 11001
10707 10709 10711 10715 10720 10728 10737 10745 10754 10764 10773 10781 10788 10793 10800 10812 10823 10831 10838 10851 10863 10868 10874 10882 10890 10897 10903 10909 10915 10920 10925 10931 10937 10941 10944 10946 10949 10951 10953 10956 10959 10964 10970 10975 10976 10977 10978 10980 10982 10984 10985 10987 10988 10989 10991 10992 10993 10994 10995 10996 10996 10997 10998
10703 10704 10706 10710 10717 10725 10734 10740 10748 10758 10767 10773 10777 10783 10792 10803 10814 10824 10834 10847 10856 10861 10868 10875 10883 10891 10897 10902 10909 10914 10918 10924 10929 10931 10933 10936 10940 10942 10946 10951 10955 10961 10965 10968 10968 10969 10970 10972 10974 10977 10979 10982 10984 10985 10986 10988 10989 10989 10990 10991 10993 10994 10995
10698 10699 10700 10705 10713 10721 10728 10735 10743 10751 10758 10762 10770 10779 10788 10798 10810 10820 10830 10840 10847 10853 10860 10867 10875 10882 10888 10894 10900 10905 10910 10915 10919 10922 10923 10924 10927 10932 10937 10942 10948 10955 10959 10961 10963 10963 10964 10964 10965 10968 10972 10976 10978 10980 10981 10982 10982 10983 10985 10986 10988 10989 10990
10694 10694 10696 10701 10708 10716 10721 10728 10736 10744 10749 10754 10764 10774 10783 10795 10807 10816 10825 10835 10841 10845 10852 10858 10865 10873 10879 10885 10891 10896 10902 10907 10910 10913 10915 10916 10919 10924 10929 10933 10938 10943 10947 10951 10956 10958 10958 10959 10961 10964 10967 10970 10973 10976 10979 10980 10979 10979 10980 10983 10984 10985 10987
10689 10689 10692 10698 10706 10712 10717 10722 10730 10737 10742 10748 10758 10768 10778 10790 10802 10812 10822 10831 10835 10838 10844 10850 10857 10864 10871 10877 10882 10887 10893 10897 10900 10904 10907 10908 10911 10915 10919 10925 10930 10933 10937 10942 10946 10948 10951 10954 10957 10960 10964 10966 10969 10973 10977 10979 10980 10978 10978 10980 10982 10983 10985
10684 10686 10691 10697 10703 10710 10714 10718 10724 10730 10735 10742 10752 10762 10772 10783 10794 10805 10815 10822 10826 10831 10836 10842 10848 10856 10863 10869 10873 10878 10883 10888 10892 10896 10899 10901 10904 10908 10913 10919 10923 10927 10932 10936 10938 10942 10946 10950 10954 10957 10961 10964 10967 10970 10972 10976 10977 10975 10975 10977 10978 10979 10982
10681 10684 10690 10695 10699 10704 10709 10712 10717 10723 10728 10736 10746 10756 10765 10774 10784 10796 10806 10812 10817 10823 10828 10833 10838 10844 10851 10858 10863 10868 10873 10880 10885 10889 10892 10894 10898 10903 10908 10912 10917 10922 10927 10931 10934 10938 10942 10946 10950 10954 10957 10960 10964 10966 10968 10971 10972 10971 10971 10972 10974 10975 10977
10679 10683 10687 10691 10693 10697 10702 10707 10712 10717 10723 10730 10738 10748 10757 10765 10774 10785 10795 10802 10808 10814 10819 10824 10829 10834 10840 10846 10851 10857 10863 10870 10876 10880 10883 10887 10892 10898 10902 10907 10912 10917 10921 10926 10929 10934 10938 10942 10946 10950 10954 10957 10960 10961 10962 10965 10967 10967 10967 10967 10968 10971 10973
10676 10679 10683 10686 10688 10691 10697 10703 10708 10712 10716 10722 10730 10738 10747 10755 10764 10775 10784 10791 10798 10804 10810 10816 10821 10826 10831 10835 10839 10845 10852 10860 10866 10871 10876 10881 10886 10893 10898 10902 10906 10911 10916 10920 10925 10930 10935 10939 10942 10946 10950 10953 10955 10956 10957 10959 10961 10963 10964 10964 10964 10965 10967
10671 10674 10678 10681 10683 10687 10692 10697 10701 10705 10710 10715 10721 10729 10737 10745 10753 10763 10772 10780 10787 10795 10801 10807 10812 10817 10822 10825 10829 10834 10841 10849 10856 10862 10868 10874 10879 10885 10890 10895 10900 10904 10909 10914 10919 10925 10930 10933 10937 10941 10945 10948 10949 10951 10953 10954 10956 10958 10960 10960 10960 10961 10962
10667 10669 10674 10677 10679 10682 10686 10690 10694 10699 10704 10709 10715 10721 10728 10735 10743 10752 10761 10769 10777 10785 10793 10799 10804 10808 10812 10816 10820 10825 10832 10839 10846 10852 10859 10865 10870 10876 10881 10887 10891 10896 10902 10908 10913 10919 10924 10928 10931 10934 10938 10941 10944 10947 10949 10951 10952 10953 10954 10954 10956 10957 10957
10663 10665 10668 10671 10674 10677 10680 10683 10687 10692 10698 10702 10707 10712 10718 10725 10733 10742 10751 10759 10767 10775 10783 10790 10796 10800 10804 10808 10812 10817 10823 10830 10836 10843 10849 10855 10861 10867 10872 10878 10883 10888 10895 10901 10906 10912 10917 10921 10924 10927 10930 10934 10938 10942 10944 10946 10947 10947 10948 10949 10950 10951 10952
10659 10660 10662 10666 10668 10670 10673 10676 10680 10684 10689 10693 10698 10703 10710 10717 10725 10734 10743 10751 10758 10766 10773 10780 10786 10792 10797 10801 10805 10809 10815 10821 10827 10834 10840 10846 10853 10859 10865 10870 10876 10882 10888 10894 10899 10904 10908 10910 10912 10916 10920 10926 10930 10934 10936 10937 10938 10939 10941 10943 10945 10946 10946
10656 10656 10658 10660 10662 10664 10666 10669 10672 10677 10683 10686 10690 10696 10703 10710 10718 10726 10735 10742 10749 10756 10763 10770 10776 10783 10789 10794 10797 10801 10806 10812 10819 10826 10832 10838 10844 10851 10857 10862 10867 10874 10880 10886 10891 10896 10899 10901 10903 10907 10913 10918 10921 10924 10926 10928 10930 10931 10934 10936 10938 10939 10940
10653 10652 10653 10655 10656 10658 10659 10662 10666 10672 10677 10680 10685 10690 10695 10702 10709 10718 10726 10733 10740 10746 10754 10760 10767 10773 10780 10785 10790 10794 10798 10804 10812 10818 10823 10829 10835 10842 10849 10854 10859 10864 10871 10878 10883 10887 10890 10893 10897 10901 10906 10910 10913 10915 10917 10918 10920 10922 10925 10927 10929 10929 10932
10649 10649 10649 10650 10651 10653 10654 10657 10660 10665 10669 10674 10679 10683 10687 10693 10701 10710 10718 10726 10732 10738 10744 10751 10758 10764 10771 10778 10783 10787 10791 10797 10804 10810 10816 10821 10827 10833 10840 10846 10851 10855 10860 10867 10874 10878 10882 10886 10889 10893 10897 10900 10903 10906 10908 10909 10911 10913 10914 10916 10918 10920 10922
10646 10645 10645 10646 10647 10649 10651 10654 10657 10659 10664 10670 10674 10677 10681 10688 10695 10703 10711 10718 10724 10730 10736 10742 10749 10756 10763 10771 10776 10780 10783 10789 10796 10803 10809 10814 10819 10825 10830 10836 10842 10847 10851 10857 10863 10868 10873 10877 10880 10884 10888 10891 10894 10896 10898 10900 10903 10905 10905 10907 10909 10911 10913
10642 10642 10642 10642 10644 10645 10647 10650 10653 10656 10661 10666 10669 10673 10677 10682 10688 10695 10702 10709 10716 10722 10727 10733 10740 10748 10755 10763 10769 10772 10776 10782 10788 10794 10801 10807 10812 10817 10822 10828 10834 10838 10843 10848 10854 10858 10863 10867 10871 10874 10878 10881 10884 10886 10888 10891 10894 10897 10898 10899 10901 10903 10905
10639 10638 10638 10639 10640 10642 10643 10645 10649 10653 10657 10661 10664 10668 10672 10676 10680 10686 10693 10700 10707 10713 10718 10724 10731 10739 10747 10754 10760 10765 10770 10774 10779 10785 10791 10797 10804 10809 10814 10819 10825 10830 10834 10839 10844 10849 10853 10857 10861 10864 10867 10870 10874 10877 10879 10882 10885 10888 10890 10891 10892 10895 10897
10636 10635 10635 10635 10636 10638 10639 10641 10644 10648 10652 10656 10658 10661 10665 10669 10674 10679 10685 10692 10698 10704 10709 10715 10722 10728 10736 10743 10750 10757 10762 10767 10771 10776 10782 10788 10794 10800 10804 10809 10814 10820 10824 10829 10834 10838 10843 10846 10850 10854 10857 10860 10863 10867 10870 10873 10876 10879 10882 10883 10884 10886 10888
10634 10632 10631 10632 10632 10633 10634 10636 10638 10642 10646 10649 10652 10655 10659 10663 10668 10672 10678 10683 10689 10695 10700 10706 10712 10718 10725 10732 10739 10745 10752 10757 10762 10767 10773 10779 10784 10789 10794 10798 10803 10808 10813 10818 10823 10828 10832 10836 10839 10843 10846 10850 10853 10856 10860 10863 10866 10869 10872 10874 10875 10877 10879
10631 10629 10628 10628 10628 10629 10630 10631 10633 10636 10639 10643 10646 10649 10653 10657 10661 10666 10670 10675 10681 10686 10692 10697 10704 10709 10715 10721 10727 10734 10740 10746 10751 10757 10762 10768 10773 10778 10783 10788 10792 10796 10801 10806 10812 10817 10822 10825 10828 10831 10834 10838 10842 10845 10849 10852 10856 10859 10862 10864 10866 10868 10869
10629 10627 10625 10625 10625 10625 10626 10627 10629 10631 10634 10637 10640 10643 10647 10650 10654 10659 10663 10667 10672 10678 10683 10689 10694 10700 10705 10711 10717 10723 10729 10735 10740 10745 10750 10756 10761 10766 10771 10776 10781 10785 10789 10794 10799 10804 10809 10814 10817 10819 10821 10824 10829 10833 10837 10841 10844 10848 10851 10853 10855 10857 10859
10627 10624 10623 10622 10622 10622 10623 10623 10625 10626 10629 10631 10634 10637 10641 10644 10648 10652 10656 10660 10664 10669 10674 10679 10685 10691 10697 10701 10706 10712 10718 10724 10729 10734 10739 10744 10749 10755 10759 10764 10769 10773 10777 10782 10786 10791 10796 10801 10804 10807 10810 10812 10815 10820 10825 10829 10833 10836 10839 10841 10843 10845 10848
10624 10622 10620 10619 10619 10619 10620 10620 10621 10623 10625 10627 10629 10632 10635 10638 10641 10645 10649 10653 10657 10660 10664 10669 10675 10682 10688 10692 10697 10701 10707 10712 10718 10723 10727 10732 10738 10743 10748 10752 10757 10761 10765 10769 10774 10778 10782 10787 10791 10795 10798 10801 10803 10807 10812 10817 10821 10824 10827 10829 10832 10834 10837
10621 10620 10618 10617 10616 10616 10617 10617 10618 10619 10621 10622 10624 10626 10629 10632 10635 10639 10643 10646 10649 10653 10656 10660 10665 10671 10677 10682 10687 10692 10696 10701 10706 10711 10716 10721 10726 10731 10736 10741 10745 10749 10753 10757 10761 10765 10769 10773 10778 10782 10786 10790 10793 10795 10799 10803 10808 10812 10816 10818 10821 10824 10827
10618 10617 10616 10615 10615 10615 10614 10614 10615 10616 10617 10619 10620 10621 10623 10626 10629 10632 10636 10639 10642 10645 10648 10652 10657 10662 10667 10672 10677 10682 10686 10690 10695 10700 10705 10709 10714 10719 10724 10729 10733 10737 10741 10745 10749 10753 10757 10761 10765 10769 10773 10777 10781 10784 10787 10790 10794 10799 10803 10806 10808 10812 10815
10615 10614 10614 10613 10612 10612 10612 10612 10612 10613 10614 10615 10616 10617 10619 10621 10624 10626 10629 10632 10635 10638 10641 10645 10649 10653 10659 10664 10668 10672 10676 10680 10685 10689 10694 10698 10702 10707 10712 10716 10721 10725 10729 10733 10736 10740 10744 10748 10752 10756 10760 10764 10768 10771 10774 10777 10781 10785 10789 10793 10796 10799 10803
10612 10612 10611 10611 10610 10610 10610 10610 10610 10611 10611 10612 10613 10614 10615 10616 10618 10620 10623 10626 10629 10632 10635 10638 10641 10645 10649 10654 10659 10663 10667 10670 10674 10678 10682 10686 10690 10694 10699 10703 10707 10711 10715 10719 10724 10728 10732 10736 10739 10743 10747 10750 10754 10758 10761 10764 10767 10770 10774 10778 10782 10785 10789